Regional Weather Roundup
Issued by NWS Spokane, WA

Home | Current Version | Previous Version | Text Only | Print | Product List | Glossary On
Versions: 1 2 3 4 5 6 7 8 9 10 11 12 13 14 15 16 17 18 19 20 21 22 23 24 25 26 27 28 29 30 31 32 33 34 35 36 37 38 39 40 41 42 43 44 45 46 47 48 49 50
000
NZUS01 KOTX 071110
RWROTX

Eastern Washington/Northern Idaho Roundup
National Weather Service, Spokane WA
300 AM PST WED DEC 07 2016

Note: "fair" indicated few or no clouds below 12,000 feet with no
significant weather and/or obstructions to visibility.

...Northeast Washington and Northern Idaho Panhandle...

CITY           SKY/WX    TMP DP  RH WIND       PRES   REMARKS
Spokane Intl   FLURRIES  22  14  71 SE3       30.29R
Spokane Downto CLOUDY    24  15  68 CALM      30.33R
Coeur d Alene  CLOUDY    21  14  74 NE8       30.30R WCI  11
Deer Park      CLOUDY    23  15  71 CALM      30.31R
Sandpoint      CLOUDY    21   9  58 N9        30.33R WCI  11
Bonners Ferry  CLOUDY    18   1  49 E8        30.35R WCI   7

...Southeast Washington and southern Idaho Panhandle...

CITY           SKY/WX    TMP DP  RH WIND       PRES   REMARKS
Walla Walla    CLOUDY    21  14  74 CALM      30.37R
Pullman/Moscow CLOUDY    17  15  92 NE5       30.31R WCI  10
Lewiston       PTCLDY    23  16  74 E3        30.36R
Grangeville    CLOUDY    19  16  86 CALM      30.23S

...Columbia Basin...

CITY           SKY/WX    TMP DP  RH WIND       PRES   REMARKS
Ephrata        CLOUDY    23   9  55 NW8       30.38R WCI  14
Moses Lake     CLOUDY    23  13  65 N9        30.39R WCI  13
Pasco          CLOUDY    21  20  96 CALM      30.45R
Richland       CLOUDY    22  21  95 CALM      30.45R
Hermiston      CLEAR     16  13  88 SE3       30.41R
Pendleton      CLEAR     13   8  81 SE7       30.35S WCI   3

...East Slopes Cascades...

CITY           SKY/WX    TMP DP  RH WIND       PRES   REMARKS
The Dalles     MOCLDY    26  22  84 E5        30.42R WCI  20
Yakima         CLOUDY    26  20  77 W5        30.38R WCI  20
Ellensburg     CLOUDY    26  15  63 S5        30.33R WCI  20
Stampede Pass  CLOUDY    18  17  96 E3        30.19R
Wenatchee      CLOUDY    25   7  46 E3        30.40R
Omak           CLEAR     19   4  51 N16       30.44R WCI   4
Sunnyside      CLOUDY    23  20  87 SW3       30.40R

...Southern British Columbia...

CITY           SKY/WX    TMP DP  RH WIND       PRES   REMARKS
Penticton      CLOUDY    19   1  45 N12       30.54R WCI   7
Cranbrook      FLURRIES   7  -2  66 NE2       30.35R
Osoyoos          N/A     23   9  54 NW13G22     N/A  WCI  11
Creston          N/A     19   1  45 NE12        N/A  WCI   7

...Western Montana...

CITY           SKY/WX    TMP DP  RH WIND       PRES   REMARKS
Kalispell      CLOUDY     8  -3  61 NE16      30.34R WCI -10
Libby            N/A     16   3  57 CALM      30.35R
Missoula       CLOUDY    12  -1  56 E16       30.31R WCI  -5

...Neighboring Cities...

CITY           SKY/WX    TMP DP  RH WIND       PRES   REMARKS
Seattle        PTCLDY    30  25  81 NE7       30.40R WCI  23
Portland       CLOUDY    31  30  96 E3        30.39S FOG
Boise          PTCLDY    13  10  88 SE3       30.24R
Great Falls    CLOUDY    -3  -8  79 SW6       30.38R WCI -15
Calgary        PTCLDY    -8 -17  65 N13       30.39R WCI -28



USA.gov is the U.S. government's official web portal to all federal, state and local government web resources and services.